Pittsfield, MA

5:43 AM EST on January 22, 2018 (GMT -0500)
Pittsfield Municipal

Weather History for KPSF - January, 2013

Change the Weather History Date:

Monday, January 14, 2013

  Actual Average Record
Temperature  
Mean Temperature 38 °F 20 °F  
Max Temperature 46 °F 29 °F 64 °F (1932)
Min Temperature 30 °F 11 °F -15 °F (2004)
Degree Days  
Heating Degree Days 27 45  
Month to date heating degree days 535 623  
Since 1 July heating degree days 3071 3461  
Cooling Degree Days 0 0  
Month to date cooling degree days 0 0  
Year to date cooling degree days 0 0  
Moisture  
Dew Point 36 °F    
Average Humidity 80    
Maximum Humidity 100    
Minimum Humidity 59    
Precipitation  
Precipitation 0.08 in 0.10 in 0.94 in (2005)
Month to date precipitation 0.25 1.51  
Year to date precipitation 0.25 1.51  
Sea Level Pressure  
Sea Level Pressure 30.02 in    
Wind  
Wind Speed 8 mph (WNW)    
Max Wind Speed 22 mph    
Max Gust Speed 29 mph    
Visibility 5 miles    
Events Fog , Rain    
T = Trace of Precipitation, MM = Missing Value Source: NWS Daily Summary

Daily Weather History Graph

Daily Weather History Graph

Search for Another Location

Airport or City:

Trip Planner

Search our weather history database for the weather conditions in past years. The results will help you decide how hot, cold, wet, or windy it might be!

Date:

Astronomy

Jan. 14, 2013 Rise Set
Actual Time 7:20 AM EST 4:44 PM EST
Civil Twilight 6:49 AM EST 5:15 PM EST
Nautical Twilight 6:14 AM EST 5:50 PM EST
Astronomical Twilight 5:40 AM EST 6:24 PM EST
Moon 8:47 AM EST (1/14) 8:32 PM EST (1/14)
Length of Visible Light 10h 26m
Length of Day
9h 24m
Waxing Crescent, 11% of the Moon is Illuminated
Jan 14
Waxing Crescent
Jan 18
First Quarter
Jan 26
Full
Feb 3
Last Quarter
Feb 10
New

Hourly Weather History & Observations

Time (EST) Temp. Windchill Dew Point Humidity Pressure Visibility Wind Dir Wind Speed Gust Speed Precip Events Conditions
12:21 AM 39.2 °F - 39.2 °F 100% 29.94 in 0.2 mi Calm Calm - N/A Fog Fog
12:54 AM 42.1 °F 40.2 °F 42.1 °F 100% 29.94 in 0.2 mi SSW 3.5 mph - N/A Fog Fog
1:17 AM 42.8 °F 41.1 °F 42.8 °F 100% 29.94 in 0.2 mi South 3.5 mph - N/A Fog Fog
1:54 AM 41.0 °F - 39.9 °F 96% 29.94 in 0.2 mi Calm Calm - N/A Fog Fog
2:30 AM 41.0 °F 38.0 °F 41.0 °F 100% 29.94 in 0.8 mi Variable 4.6 mph - N/A   Mist
2:54 AM 41.0 °F 39.0 °F 41.0 °F 100% 29.94 in 0.5 mi Variable 3.5 mph - N/A Fog Fog
3:15 AM 41.0 °F - 41.0 °F 100% 29.93 in 0.2 mi Calm Calm - N/A Fog Fog
3:25 AM 42.8 °F 40.1 °F 41.0 °F 93% 29.94 in 0.8 mi Variable 4.6 mph - N/A   Mist
3:38 AM 39.2 °F 37.0 °F 39.2 °F 100% 29.97 in 0.2 mi WNW 3.5 mph - N/A Fog Fog
3:54 AM 41.0 °F 38.0 °F 41.0 °F 100% 29.94 in 0.5 mi ENE 4.6 mph - 0.01 in Fog , Rain Light Rain
4:10 AM 42.8 °F - 41.0 °F 93% 29.91 in 1.0 mi Calm Calm - 0.01 in Rain Light Rain
4:18 AM 39.2 °F - 39.2 °F 100% 29.93 in 0.5 mi Calm Calm - 0.01 in Fog , Rain Light Rain
4:33 AM 39.2 °F 37.0 °F 39.2 °F 100% 29.90 in 0.5 mi NNE 3.5 mph - 0.03 in Fog , Rain Light Rain
4:49 AM 39.2 °F 35.9 °F 39.2 °F 100% 29.91 in 0.5 mi NW 4.6 mph - 0.06 in Fog , Rain Light Rain
5:05 AM 41.0 °F 37.1 °F 39.2 °F 93% 29.85 in 0.8 mi SE 5.8 mph - 0.01 in Rain Light Rain
5:10 AM 42.8 °F 40.1 °F 42.8 °F 100% 29.86 in 2.5 mi ESE 4.6 mph - 0.01 in Rain Light Rain
5:17 AM 44.6 °F 40.7 °F 44.6 °F 100% 29.86 in 10.0 mi Variable 6.9 mph - 0.01 in   Mostly Cloudy
5:34 AM 39.2 °F 35.9 °F 39.2 °F 100% 29.89 in 1.8 mi NW 4.6 mph - 0.01 in   Overcast
5:47 AM 39.2 °F - 39.2 °F 100% 29.89 in 0.8 mi Calm Calm - 0.01 in   Overcast
5:54 AM 39.9 °F - 39.0 °F 97% 29.90 in 0.8 mi Calm Calm - 0.01 in   Overcast
6:08 AM 39.2 °F 37.0 °F 39.2 °F 100% 29.90 in 0.5 mi ESE 3.5 mph - N/A Fog Fog
6:54 AM 41.0 °F 38.0 °F 41.0 °F 100% 29.92 in 0.5 mi SW 4.6 mph - N/A Fog Fog
7:12 AM 39.2 °F - 39.2 °F 100% 29.93 in 0.2 mi Calm Calm - N/A Fog Fog
7:28 AM 41.0 °F - 41.0 °F 100% 29.94 in 0.5 mi Calm Calm - N/A Fog Fog
7:35 AM 41.0 °F 38.0 °F 41.0 °F 100% 29.95 in 0.2 mi NNE 4.6 mph - N/A Fog Fog
7:54 AM 41.0 °F - 41.0 °F 100% 29.97 in 0.2 mi Calm Calm - N/A Fog Fog
8:10 AM 46.4 °F 40.7 °F 44.6 °F 93% 30.00 in 1.0 mi WNW 12.7 mph 23.0 mph N/A   Overcast
8:15 AM 44.6 °F 39.2 °F 44.6 °F 100% 30.01 in 3.0 mi WNW 10.4 mph 23.0 mph N/A   Overcast
8:47 AM 44.6 °F 40.2 °F 42.8 °F 93% 30.02 in 10.0 mi West 8.1 mph 16.1 mph N/A   Overcast
8:54 AM 44.1 °F 40.8 °F 42.1 °F 93% 30.02 in 10.0 mi WNW 5.8 mph - N/A   Overcast
9:28 AM 42.8 °F 38.0 °F 41.0 °F 93% 30.04 in 10.0 mi West 8.1 mph - N/A   Overcast
9:54 AM 44.1 °F 41.5 °F 41.0 °F 89% 30.05 in 10.0 mi NW 4.6 mph - N/A   Overcast
10:54 AM 41.0 °F 38.0 °F 37.0 °F 86% 30.08 in 10.0 mi Variable 4.6 mph 18.4 mph N/A   Overcast
11:28 AM 41.0 °F 34.3 °F 35.6 °F 81% 30.09 in 10.0 mi NNW 11.5 mph 23.0 mph N/A   Overcast
11:54 AM 39.9 °F 32.1 °F 33.1 °F 77% 30.10 in 10.0 mi WNW 13.8 mph 24.2 mph N/A   Overcast
1:28 PM 39.2 °F 30.5 °F 30.2 °F 70% 30.11 in 10.0 mi WNW 16.1 mph 28.8 mph N/A   Scattered Clouds
1:54 PM 39.9 °F 32.5 °F 30.0 °F 68% 30.12 in 10.0 mi WNW 12.7 mph 23.0 mph N/A   Partly Cloudy
2:54 PM 39.9 °F 35.1 °F 27.0 °F 60% 30.14 in 10.0 mi Variable 6.9 mph 16.1 mph N/A   Clear
3:54 PM 37.9 °F 29.2 °F 26.1 °F 62% 30.17 in 10.0 mi NW 15.0 mph 19.6 mph N/A   Clear
4:54 PM 35.1 °F 26.9 °F 25.0 °F 67% 30.17 in 10.0 mi WNW 11.5 mph - N/A   Clear
5:54 PM 32.0 °F 21.6 °F 23.0 °F 69% 30.18 in 10.0 mi WNW 15.0 mph 24.2 mph N/A   Clear
6:54 PM 32.0 °F 20.8 °F 23.0 °F 69% 30.23 in 10.0 mi WNW 17.3 mph 24.2 mph N/A   Clear
7:54 PM 32.0 °F 20.8 °F 23.0 °F 69% 30.24 in 10.0 mi WNW 17.3 mph 28.8 mph N/A   Clear
8:54 PM 30.9 °F 19.8 °F 23.0 °F 72% 30.24 in 10.0 mi WNW 16.1 mph 21.9 mph N/A   Clear
9:54 PM 30.9 °F 21.2 °F 23.0 °F 72% 30.23 in 10.0 mi WNW 12.7 mph - N/A   Clear
10:54 PM 30.9 °F 23.5 °F 23.0 °F 72% 30.27 in 10.0 mi West 8.1 mph - N/A   Clear
11:54 PM 30.0 °F 22.4 °F 21.9 °F 72% 30.27 in 10.0 mi West 8.1 mph - N/A   Partly Cloudy